Terminal Aerodrome Forecast
Issued by NWS

Home | Current Version | Previous Version | Text Only | Print | Product List | Glossary Off
Versions: 1 2 3 4 5 6 7 8 9 10 11 12 13 14 15 16 17 18 19 20 21 22 23 24 25

791
FTUS43 KGRB 211628 AAB
TAFMTW
TAF AMD
KMTW 211628Z 2116/2212 VRB03KT P6SM SCT012
     FM211800 09007KT P6SM SCT015
     FM212100 12005KT P6SM BKN025
     FM220000 10005KT P6SM FEW030 BKN120
     FM220500 16005KT P6SM BKN100
     FM220900 18005KT 4SM BR SCT120=

USA.gov is the U.S. government's official web portal to all federal, state and local government web resources and services.